This is the latest recevied weather packets stored in our database for station/object KK7KRZ. If no packets are shown the sender has not sent any weather packets the latest 10 day(s).
| Time | Temp. | Humidity | Pressure | Rain* | Wind** | Luminosity | Snow |
|---|---|---|---|---|---|---|---|
| 1777877054 | 18.89° C | 61% | 1008.2 hPa | 0 mm | - | 0 W/m² | - |
| 1777876750 | 19.44° C | 60% | 1008.4 hPa | 0 mm | - | 0 W/m² | - |
| 1777876449 | 19.44° C | 59% | 1008.2 hPa | 0 mm | - | 0 W/m² | - |
| 1777876144 | 20° C | 57% | 1008.2 hPa | 0 mm | - | 0 W/m² | - |
| 1777875841 | 20.56° C | 56% | 1008.1 hPa | 0 mm | - | 0 W/m² | - |
| 1777875537 | 20.56° C | 55% | 1008.2 hPa | 0 mm | - | 0 W/m² | - |
| 1777875233 | 21.11° C | 52% | 1008.1 hPa | 0 mm | - | 0 W/m² | - |
| 1777874931 | 21.67° C | 51% | 1008 hPa | 0 mm | - | 0 W/m² | - |
| 1777874626 | 21.67° C | 49% | 1008 hPa | 0 mm | - | 0 W/m² | - |
| 1777874323 | 21.67° C | 48% | 1007.9 hPa | 0 mm | - | 0 W/m² | - |
| 1777874021 | 22.22° C | 47% | 1007.9 hPa | 0 mm | - | 0 W/m² | - |
| 1777873718 | 22.22° C | 46% | 1007.9 hPa | 0 mm | - | 0 W/m² | - |
| 1777873415 | 22.78° C | 46% | 1007.9 hPa | 0 mm | - | 0 W/m² | - |
| 1777873112 | 22.78° C | 44% | 1008 hPa | 0 mm | - | 0 W/m² | - |
| 1777872808 | 23.33° C | 44% | 1007.9 hPa | 0 mm | - | 0 W/m² | - |
| 1777872506 | 23.33° C | 42% | 1007.7 hPa | 0 mm | - | 0 W/m² | - |
| 1777872204 | 23.89° C | 42% | 1007.7 hPa | 0 mm | - | 0 W/m² | - |
| 1777871901 | 23.89° C | 42% | 1007.4 hPa | 0 mm | - | 0 W/m² | - |
| 1777871598 | 23.89° C | 41% | 1007.5 hPa | 0 mm | - | 0 W/m² | - |
| 1777871295 | 23.33° C | 42% | 1007.4 hPa | 0 mm | - | 0 W/m² | - |
| 1777870991 | 22.78° C | 44% | 1007.1 hPa | 0 mm | - | 0 W/m² | - |
| 1777870688 | 22.78° C | 45% | 1007.2 hPa | 0 mm | - | 0 W/m² | - |
| 1777870383 | 22.78° C | 46% | 1007.1 hPa | 0 mm | - | 0 W/m² | - |
| 1777870080 | 22.78° C | 45% | 1007 hPa | 0 mm | - | 0 W/m² | - |
| 1777869777 | 22.78° C | 44% | 1007.2 hPa | 0 mm | - | 0 W/m² | - |
* Rain latest hour (hover to see other rain measurements)
** Current wind speed in m/s (hover to see current wind gust speed)